Flag for Vietnam Weather past 2 weeks in Hanoi, Vietnam

Now
93 °F

Scattered clouds.


Feels Like: 110 °F
Forecast: 80 / 90 °F
Wind: 3 mph from North

Location: Ha Noi Airport

Current Time: Aug 2, 2014 at 2:15:31 PM

Latest Report: Aug 2, 2014 at 1:30 PM


Visibility: N/A

Pressure: 29.53 "Hg

Humidity: 63%

Dew point: 79 °F

Location of HanoiLocation

Historic Weather in Hanoi — Graph

°F

Hanoi temperature yesterday

Maximum temperature yesterday: 95 °F (at 2:00 PM)
Minimum temperature yesterday: 81 °F (at 3:30 AM)
Average temperature yesterday: 88 °F

Past Weeks' High & Low Weather Summary

 TemperatureHumidityPressure
High97 °F (Jul 24, 2:00 PM)100% (Jul 19, 4:00 PM)29.80 "Hg (Jul 19, 4:00 PM)
Low73 °F (Jul 27, 5:00 AM)50% (Jul 23, 4:30 PM)29.42 "Hg (Jul 19, 2:30 AM)
Average85 °F81%29.62 "Hg
* Reported Jul 18 1:00 PM — Aug 2 1:00 PM, Hanoi, Weather by CustomWeather, © 2014

Note: Actual official high and low records may vary slightly from our data, if they occured in-between our weather recording intervals... More about our weather records

Advertising

Hanoi weather history for previous 24 hours

 ConditionsComfort  
Time TempWeatherWind HumidityBarometerVisibility
1:00 PM
Aug 2
93 °FScattered clouds.3 mph63%29.56 "HgN/A
12:30 PM93 °FScattered clouds.3 mph63%29.56 "HgN/A
12:00 PM95 °FScattered clouds.5 mph60%29.59 "HgN/A
11:30 AM91 °FScattered clouds.3 mph71%29.59 "HgN/A
11:00 AM91 °FScattered clouds.5 mph67%29.62 "HgN/A
10:30 AM88 °FScattered clouds.3 mph75%29.62 "HgN/A
10:00 AM90 °FBroken clouds.5 mph71%29.62 "HgN/A
9:30 AM90 °FScattered clouds.5 mph75%29.62 "HgN/A
9:00 AM90 °FPartly sunny.5 mph75%29.62 "HgN/A
8:30 AM88 °FScattered clouds.5 mph79%29.59 "HgN/A
8:00 AM86 °FScattered clouds.6 mph84%29.59 "HgN/A
7:30 AM86 °FBroken clouds.7 mph84%29.59 "HgN/A
7:00 AM84 °FBroken clouds.8 mph89%29.59 "HgN/A
6:30 AM82 °FBroken clouds.7 mph94%29.59 "Hg6 mi
6:00 AM82 °FPartly sunny.7 mph94%29.56 "Hg4 mi
5:30 AM82 °FPartly sunny.7 mph94%29.56 "Hg4 mi
5:00 AM82 °FPassing clouds.6 mph94%29.53 "Hg4 mi
4:30 AM82 °FClear.6 mph94%29.53 "Hg5 mi
4:00 AM82 °FClear.6 mph94%29.53 "Hg4 mi
3:30 AM82 °FFog.5 mph94%29.53 "Hg3 mi
3:00 AM82 °FFog.6 mph94%29.53 "Hg3 mi
2:30 AM82 °FClear.7 mph94%29.53 "Hg4 mi
2:00 AM82 °FClear.7 mph94%29.53 "Hg4 mi
1:30 AM82 °FClear.8 mph94%29.56 "Hg4 mi
1:00 AM84 °FClear.6 mph89%29.56 "Hg10 mi
12:30 AM84 °FPassing clouds.6 mph89%29.59 "HgN/A
12:00 AM86 °FClear.9 mph79%29.59 "Hg10 mi
11:30 PM
Aug 1
86 °FClear.9 mph84%29.59 "Hg10 mi
11:00 PM86 °FClear.8 mph84%29.59 "Hg10 mi
10:30 PM86 °FClear.8 mph84%29.59 "Hg10 mi
10:00 PM86 °FClear.8 mph84%29.56 "Hg10 mi
9:30 PM88 °FClear.10 mph75%29.56 "Hg10 mi
9:00 PM88 °FClear.10 mph79%29.56 "Hg10 mi
8:30 PM90 °FPassing clouds.8 mph75%29.53 "HgN/A
8:00 PM90 °FPassing clouds.8 mph75%29.53 "HgN/A
7:30 PM90 °FPassing clouds.10 mph75%29.53 "HgN/A
7:00 PM91 °FPassing clouds.8 mph63%29.50 "HgN/A
6:30 PM91 °FPartly sunny.8 mph63%29.50 "HgN/A
6:00 PM91 °FPartly sunny.7 mph63%29.50 "HgN/A
5:30 PM93 °FPartly sunny.7 mph59%29.47 "HgN/A
5:00 PM93 °FPartly sunny.8 mph59%29.47 "HgN/A
4:30 PM95 °FPartly sunny.8 mph56%29.47 "HgN/A
4:00 PM95 °FPartly sunny.8 mph56%29.47 "HgN/A
3:30 PM95 °FPartly sunny.7 mph56%29.50 "HgN/A
3:00 PM95 °FPartly sunny.8 mph60%29.50 "HgN/A
2:30 PM95 °FPartly sunny.10 mph60%29.50 "HgN/A
2:00 PM95 °FPartly sunny.9 mph60%29.53 "HgN/A
Weather by CustomWeather, © 2014

See weather overviewHow to use our weather pages